Skip Page Navigation
NASA JPL Caltech
NASA Logo - Jet Propulsion Laboratory + View the NASA Portal
+ Near-Earth Object (NEO) Program
Search JPL
JPL Home Earth Solar System Stars & Galaxies Technology
JPL Solar System Dynamics
BODIES ORBITS EPHEMERIDES TOOLS PHYSICAL DATA DISCOVERY FAQ SITE MAP
JPL Small-Body Database Browser
Search: [ help ]  
24815 (1994 VQ6)
Classification: Inner Main-belt Asteroid          SPK-ID: 2024815
Ephemeris | Orbit Diagram | Orbital Elements | Physical Parameters | Discovery Circumstances ]

[ show orbit diagram ]
Orbital Elements at Epoch 2457600.5 (2016-Jul-31.0) TDB
Reference: JPL 11 (heliocentric ecliptic J2000)
 Element Value Uncertainty (1-sigma)   Units 
e .1015879295847905 6.8131e-08  
a 1.924264415628097 9.8806e-09 au
q 1.728782377670751 1.3009e-07 au
i 21.03529315260089 7.7743e-06 deg
node 222.3622989594052 1.8164e-05 deg
peri 224.8578446824074 3.9459e-05 deg
M 13.41327980222838 3.6993e-05 deg
tp 2457564.173125516126
(2016-Jun-24.67312552)
0.00010008 JED
period 974.9796475595806
2.67
7.5094e-06
2.056e-08
d
yr
n .3692384768247181 2.8439e-09 deg/d
Q 2.119746453585442 1.0884e-08 au
  Orbit Determination Parameters
   # obs. used (total)      506  
   data-arc span      13551 days (37.10 yr)  
   first obs. used      1978-10-28  
   last obs. used      2015-12-04  
   planetary ephem.      DE431  
   SB-pert. ephem.      SB431-BIG16  
   condition code      0  
   fit RMS      .53524  
   data source      ORB  
   producer      Otto Matic  
   solution date      2016-Jan-04 13:56:38  

Additional Information
 Earth MOID = .770444 au 
 Jupiter MOID = 3.16123 au 
 T_jup = 3.833 
[ show covariance matrix ]

Ephemeris | Orbit Diagram | Orbital Elements | Physical Parameters | Discovery Circumstances ]

Physical Parameter Table
Parameter Symbol Value Units Sigma Reference Notes
absolute magnitude H 15.4 mag n/a MPO347710  
rotation period rot_per 31.17 h n/a LCDB (Rev. 2016-February); Warner et al., 2009 Published Reference List:
[Warner, B.D. (2011) Minor Planet Bul. 38, 82-86.]

24815 (1994 VQ6)          Discovered 1994-Nov-07 by Ueda, S., Kaneda, H. at Kushiro
Reference: 20010606/Numbers.arcLast Updated: 2004-04-19

Alternate Designations
 1994 VQ6 = 1978 UD4 = 1999 TQ322 
Ephemeris | Orbit Diagram | Orbital Elements | Physical Parameters | Discovery Circumstances ]
ABOUT SSD CREDITS/AWARDS PRIVACY/COPYRIGHT GLOSSARY LINKS
FirstGov 2016-May-07 00:26 UT
(server date/time)  
NASA Home Page
Site Manager:   Ryan S. Park
Webmaster  Alan B. Chamberlin